Regional Weather Roundup
Issued by NWS Nashville, TN

Current Version | Previous Version | Text Only | Print | Product List | Glossary On
Versions: 1 2 3 4 5 6 7 8 9 10 11 12 13 14 15 16 17 18 19 20 21 22 23 24 25 26 27 28 29 30 31 32 33 34 35 36 37 38 39 40 41 42 43 44 45 46 47 48 49 50
000
ASUS44 KOHX 260115
RWROHX
MIDDLE TENNESSEE HOURLY WEATHER ROUNDUP
NATIONAL WEATHER SERVICE NASHVILLE TN
800 PM CDT SAT OCT 25 2014

NOTE: "FAIR" INDICATES FEW OR NO CLOUDS BELOW 12,000 FEET WITH
NO SIGNIFICANT WEATHER AND/OR OBSTRUCTIONS TO VISIBILITY.

* THESE REPORTS ARE NOT UNDER NWS QUALITY CONTROL AND MAY NOT
  REPORT WEATHER SUCH AS PRECIPITATION AND FOG.


TNZ005>011-023>034-057-059-062>066-078-080-260200
...NORTHERN MIDDLE TENNESSEE...

CITY           SKY/WX    TMP DP  RH WIND       PRES   REMARKS
CLARKSVILLE    CLEAR     63  60  90 CALM      30.02R
CROSSVILLE     CLEAR     57  53  86 CALM      30.06S
NASHVILLE      CLEAR     67  62  84 CALM      30.02S
SMYRNA         CLEAR     63  61  93 CALM      30.03R
SPARTA         CLEAR     54  52  94 CALM      30.03S
$$
TNZ056-058-060-061-075>077-079-093>097-260200
...SOUTHERN MIDDLE TENNESSEE...

CITY           SKY/WX    TMP DP  RH WIND       PRES   REMARKS
COLUMBIA       MOCLDY    66  66 100 CALM      30.02S
FAYETTEVILLE   CLEAR     63  57  82 W3        30.04S
MCMINNVILLE    PTCLDY    59  59 100 CALM      30.04S
SHELBYVILLE    CLEAR     63  63 100 CALM      30.04S
TULLAHOMA      PTCLDY    61  57  88 CALM      30.05S
WINCHESTER     PTCLDY    61  57  88 CALM      30.04F
$$


...KEY TO REMARKS...
VSB - VISIBILITY IN MILES
WCI - WIND CHILL INDEX
HX  - HEAT INDEX




USA.gov is the U.S. government's official web portal to all federal, state and local government web resources and services.